Theta_e
314 316 318 323 315 314 318 317 316 316 317 317 317 317 316 318 319 316 322 323 325 321 316 317 317 318 328 328 327 332 332 332 331 332 331 327 324 323 324 324 322 322 320 320 321 321 322 323 323
314 317 321 324 317 314 311 316 317 314 316 318 318 319 318 317 321 322 323 320 322 321 317 316 315 322 323 327 326 330 332 332 332 332 327 320 321 323 323 322 322 321 320 318 316 314 313 313 314
317 319 323 314 312 312 314 314 315 316 317 318 318 318 318 319 320 322 322 320 321 320 316 315 315 329 330 330 333 333 333 331 331 324 319 319 317 316 315 315 313 313 313 312 311 309 308 307 308
317 320 318 317 318 316 315 316 313 315 316 317 317 315 318 320 319 320 321 321 321 319 316 314 314 321 331 325 329 330 323 321 318 315 315 315 314 313 312 311 311 310 307 305 304 304 304 304 304
318 319 311 315 314 313 311 315 314 314 315 316 316 314 316 317 319 319 318 320 320 319 317 314 314 314 316 315 314 315 314 315 314 314 313 312 311 310 308 306 305 304 304 304 304 304 304 304 305
317 316 315 314 313 313 312 316 314 314 315 315 316 315 317 317 317 318 318 317 318 319 319 314 314 313 313 313 314 314 314 313 312 311 310 309 307 305 304 303 303 303 304 304 305 305 306 306 305
316 312 315 313 313 314 315 314 314 314 314 315 317 315 317 317 317 317 318 317 317 318 319 316 314 313 313 313 314 313 312 311 310 309 307 306 305 304 303 303 303 304 305 305 306 306 306 306 306
318 312 315 312 314 315 315 314 315 315 316 317 316 314 316 318 318 317 317 317 316 317 318 318 314 314 313 314 313 312 311 310 308 307 306 304 303 303 303 304 304 305 306 306 306 306 306 306 305
317 310 310 313 312 314 315 314 316 316 316 316 317 317 318 318 318 317 317 317 317 316 316 317 315 314 314 314 313 311 309 308 308 307 305 303 303 303 303 304 304 305 305 305 306 305 305 305 305
315 308 310 309 311 313 315 315 316 315 315 315 316 317 317 317 317 317 317 317 317 317 316 316 316 315 314 313 312 311 309 308 308 307 305 303 303 303 303 303 304 304 305 304 305 305 305 305 305
314 313 310 313 314 316 315 314 317 314 312 317 317 317 317 317 317 317 317 317 317 317 317 316 316 315 314 313 312 311 309 308 307 306 304 303 303 304 303 303 304 304 304 304 305 305 304 304 304
315 315 314 315 317 316 314 315 314 314 317 318 317 317 317 317 316 316 317 317 317 317 317 316 316 315 315 313 312 311 309 308 307 306 305 303 303 303 303 303 303 303 304 304 304 304 304 304 304
313 313 316 317 316 317 316 314 313 314 318 317 318 316 316 316 316 316 316 316 316 316 316 316 316 315 315 314 313 312 310 309 307 306 305 304 303 303 302 302 302 303 303 303 304 303 303 303 303
313 314 313 315 315 315 314 315 313 316 316 316 316 316 316 315 316 316 316 316 316 316 316 316 316 315 315 314 314 313 311 310 308 307 305 304 303 302 302 302 302 303 303 303 303 303 303 303 302
314 312 309 309 312 311 313 311 310 315 315 315 316 315 315 316 316 317 317 317 316 316 316 316 316 315 315 314 314 313 312 310 309 308 306 304 303 302 302 301 301 302 302 303 303 303 303 302 302
310 309 310 309 309 312 312 311 311 314 314 314 315 315 316 317 317 318 317 317 317 316 316 315 316 315 315 314 314 313 312 311 309 308 306 304 303 302 302 301 300 301 301 302 302 302 302 302 301
306 308 307 307 309 310 309 310 309 313 313 314 315 315 315 316 316 318 317 317 317 317 316 316 315 315 315 315 314 313 311 310 309 308 306 304 303 302 301 301 300 300 300 301 301 302 302 302 301
308 306 306 307 308 307 308 308 309 313 310 312 312 313 314 314 314 315 315 316 316 316 316 316 315 315 315 314 313 312 311 310 309 308 306 304 303 302 301 300 299 299 299 300 300 301 301 301 301
307 306 306 306 308 309 309 309 309 310 310 310 311 311 312 313 315 315 315 315 314 314 314 315 316 316 314 314 313 313 312 310 309 309 308 305 304 302 301 300 299 299 299 299 299 300 300 300 300
307 308 308 308 309 306 307 309 309 309 310 311 311 311 312 312 313 314 314 314 314 314 314 314 314 315 315 315 314 313 313 312 310 309 307 306 304 302 301 300 299 299 298 298 299 299 300 300 300
306 307 308 308 307 306 306 308 307 307 308 310 311 311 311 312 313 314 314 315 314 314 314 314 314 313 314 315 314 313 311 310 309 309 307 305 304 302 301 301 299 298 298 298 298 298 298 299 299
309 307 308 308 308 309 308 311 308 311 310 306 309 311 313 314 314 314 314 314 314 314 314 314 314 313 314 313 312 313 313 313 313 312 311 309 306 304 303 301 299 298 298 297 297 297 297 298 298
309 308 308 308 307 307 308 307 311 308 308 308 307 311 313 314 312 313 314 314 314 314 313 313 314 313 313 313 313 312 311 312 312 311 311 309 307 305 303 302 300 298 297 297 296 296 297 297 297
308 309 307 304 306 310 309 308 310 308 309 309 309 314 314 313 313 314 313 313 314 314 313 311 312 313 312 312 311 312 312 310 310 310 310 309 307 305 303 301 300 299 298 297 296 296 296 296 296
308 308 309 309 309 313 307 308 312 309 308 309 310 313 314 313 313 312 313 313 313 313 313 312 311 311 311 311 310 310 310 308 309 309 310 309 308 306 305 303 301 300 298 297 296 295 295 295 295
306 307 308 308 310 314 307 312 313 308 309 311 309 310 312 312 312 312 313 313 312 313 313 311 310 310 310 309 310 308 307 308 309 309 308 309 308 308 307 305 302 301 300 298 296 295 295 294 294
306 308 307 308 298 303 311 310 312 309 307 307 308 309 311 310 310 313 313 312 312 312 313 313 310 310 309 308 308 308 308 307 309 309 309 308 307 307 306 305 303 302 300 298 297 296 295 294 294
307 306 308 305 311 309 311 310 313 312 310 308 306 306 311 312 313 313 313 312 311 312 313 312 310 309 309 309 308 307 307 307 307 307 309 309 308 307 306 305 303 301 300 298 297 297 295 294 293
305 307 307 307 310 315 316 314 313 311 309 307 309 311 311 311 311 310 308 308 308 309 310 309 308 309 308 309 309 308 307 307 307 306 306 307 307 307 307 306 304 302 301 298 298 297 296 294 293
308 312 312 313 314 310 312 314 312 311 310 309 310 311 308 304 304 304 303 304 304 306 307 308 308 305 305 305 304 304 305 306 305 307 307 307 306 305 304 304 304 302 301 300 299 297 297 295 294
Wind_Speed
5 3 3 2 4 5 4 5 2 3 2 3 9 6 7 4 6 4 2 8 10 17 19 18 18 19 19 17 15 13 12 12 11 11 11 14 14 12 9 8 9 9 9 8 8 7 7 7 7
4 2 2 2 4 2 5 4 5 6 2 5 7 4 2 7 10 5 6 10 11 15 17 17 17 18 18 16 16 15 15 14 13 15 14 11 11 10 9 8 8 9 10 11 9 9 8 9 9
2 1 1 4 3 4 5 5 4 2 4 4 2 5 3 4 8 7 7 12 10 14 17 16 18 17 16 16 17 16 17 16 15 14 11 11 11 10 10 10 11 11 10 9 9 9 8 8 9
1 1 4 3 6 7 6 5 3 2 3 7 3 5 6 10 4 7 11 11 12 13 18 18 18 18 19 20 18 18 18 16 15 12 10 11 10 10 8 8 9 8 8 8 7 6 5 5 6
1 2 3 2 5 6 5 10 6 4 2 2 4 5 6 8 14 10 7 13 15 15 18 19 19 20 21 19 17 18 16 16 14 12 11 10 10 9 9 9 8 7 6 4 2 2 2 3 4
2 2 3 3 5 6 7 9 3 4 6 2 4 7 8 12 11 11 11 11 14 16 18 20 21 21 20 20 18 16 16 16 14 13 11 10 11 10 9 9 8 7 5 4 3 1 2 3 3
4 3 3 3 5 6 4 2 3 3 3 6 4 2 5 8 9 11 12 13 15 18 19 22 22 22 21 21 19 18 18 16 14 13 13 12 12 11 10 8 8 6 5 5 3 2 1 2 2
2 4 1 4 3 6 4 2 3 5 5 6 6 6 5 2 5 11 14 15 17 20 21 24 24 23 23 22 21 20 19 17 16 15 14 13 13 12 10 9 8 6 5 4 3 3 2 3 3
4 3 2 5 5 5 2 1 2 4 6 7 9 18 18 15 12 13 17 19 20 22 24 25 27 27 26 25 23 23 21 20 18 17 15 14 14 12 12 11 9 8 6 4 4 4 4 5 5
4 4 8 7 5 5 6 4 10 4 7 12 17 24 25 25 23 23 23 23 24 24 25 27 29 29 28 27 27 26 24 23 21 19 17 16 15 14 14 12 11 9 7 6 4 3 4 5 6
5 6 5 7 16 14 7 7 13 4 7 26 21 25 22 25 27 28 28 28 27 24 27 28 29 30 31 30 30 29 28 26 24 22 21 20 19 17 15 13 11 10 8 7 6 6 6 5 6
3 14 12 6 8 7 5 9 7 13 34 36 30 26 30 30 31 32 32 30 30 30 29 30 31 31 32 32 32 31 31 29 28 26 25 24 22 20 18 17 15 13 12 10 8 7 7 7 7
5 6 14 23 21 22 21 26 14 19 44 42 38 36 35 33 33 33 33 32 33 35 32 32 32 33 33 34 34 34 34 33 30 29 28 27 26 24 22 21 19 16 13 10 9 8 7 7 7
3 7 13 18 21 18 9 25 4 28 39 39 35 35 33 31 30 30 33 34 35 35 35 34 35 35 35 36 36 36 36 35 34 33 31 30 28 26 25 23 21 18 15 13 11 9 8 8 9
5 7 9 9 14 7 10 12 10 38 31 34 34 34 32 31 28 30 27 31 33 34 34 36 36 38 39 38 38 38 37 37 37 36 34 33 31 29 27 26 23 21 18 15 13 12 11 10 9
3 2 4 2 7 3 10 10 22 30 23 30 30 30 27 31 30 30 28 30 31 33 34 37 38 40 41 41 40 40 39 39 39 38 37 36 34 33 31 29 26 23 20 18 16 14 12 11 9
2 5 8 11 17 5 8 8 12 17 14 20 33 38 41 39 38 38 37 39 39 37 36 37 40 42 43 44 44 43 42 42 42 41 41 39 37 36 34 31 29 26 24 21 19 17 15 13 11
8 6 6 7 5 5 7 15 13 40 18 33 37 45 48 50 54 48 47 47 45 44 43 41 40 43 44 45 46 47 46 46 44 44 43 41 40 38 37 34 32 30 27 25 22 19 17 15 13
1 5 7 9 12 4 15 18 20 26 32 33 37 38 45 51 52 49 47 45 41 42 42 44 43 43 46 47 49 50 52 50 48 47 46 45 43 42 40 37 35 33 30 26 24 22 20 17 14
9 12 15 13 18 5 14 19 19 20 26 39 40 43 39 38 44 43 40 38 35 34 34 36 40 43 45 47 49 51 52 52 50 49 49 48 47 45 42 40 38 35 32 30 28 25 22 19 16
6 7 17 13 7 6 9 11 9 10 16 33 44 42 38 39 42 41 38 35 35 34 33 33 32 39 45 47 50 53 54 53 53 54 53 51 49 46 45 43 40 37 35 32 30 27 24 22 19
16 12 13 11 4 4 5 10 3 13 15 10 25 34 37 35 33 32 31 32 33 33 28 27 30 34 37 46 52 54 57 59 57 55 52 52 51 49 47 44 42 39 37 35 32 30 27 25 23
10 5 5 2 4 5 3 4 3 4 6 10 9 23 28 25 23 22 26 28 31 35 33 31 28 32 39 45 48 53 56 57 56 55 53 53 52 51 50 47 45 43 40 38 36 34 31 29 26
2 1 3 3 2 7 12 9 3 4 6 4 3 14 13 17 20 19 21 25 31 43 40 29 32 33 39 44 47 49 53 56 58 57 53 52 52 52 51 49 47 44 42 41 38 35 34 31 28
3 4 4 4 1 10 2 5 12 6 9 6 11 19 17 16 14 18 22 30 35 45 42 33 31 35 37 41 45 47 50 52 56 55 53 51 50 53 52 51 49 48 44 41 38 38 36 34 31
7 8 5 7 6 12 3 14 11 8 8 14 12 11 9 17 16 17 27 37 40 40 40 41 30 28 31 36 39 43 46 48 51 53 53 50 47 45 47 48 49 47 45 43 41 40 38 36 33
5 5 3 3 2 1 11 20 19 12 7 3 6 3 13 22 21 41 49 48 36 39 40 45 34 27 27 30 32 36 40 46 48 50 50 50 46 42 43 45 47 47 46 44 42 42 41 38 36
5 3 1 2 3 11 12 7 20 15 10 8 9 15 28 37 37 42 45 38 35 34 36 36 30 25 21 24 27 31 35 40 46 48 48 49 45 44 42 42 43 45 46 45 44 43 42 40 38
2 3 3 2 5 12 12 11 16 10 6 9 12 24 25 33 41 38 32 29 29 27 26 29 25 24 32 28 27 29 34 36 40 46 49 49 46 45 45 44 43 44 46 47 46 45 43 42 41
7 20 22 13 9 9 17 19 23 20 14 10 21 31 28 24 26 27 25 26 28 27 24 24 26 28 27 31 36 36 34 35 39 42 45 47 48 48 48 46 45 45 46 46 48 48 46 45 44
Wind_Direction
232 240 272 295 45 59 268 261 262 256 237 187 145 163 196 185 169 211 225 177 186 188 189 190 186 187 191 199 201 191 194 194 194 199 205 214 224 227 217 212 217 225 240 247 257 274 280 275 277
236 246 256 93 91 48 268 248 234 232 256 166 169 160 176 242 229 267 194 180 180 188 192 190 184 185 192 196 201 198 199 200 199 205 216 225 217 224 231 231 234 239 249 261 280 284 281 278 277
223 202 237 93 116 192 229 226 236 252 211 180 209 225 224 228 228 220 219 195 196 189 193 194 189 183 179 185 184 193 192 198 200 215 228 231 237 238 239 242 243 246 257 272 278 285 286 285 280
209 154 62 95 232 254 220 252 242 286 224 232 230 268 248 236 247 210 225 211 208 199 195 197 198 195 185 192 187 196 208 210 222 235 231 238 246 249 243 238 245 248 257 263 272 282 287 291 305
155 39 55 321 260 264 258 270 252 200 239 213 201 273 256 257 243 241 223 220 219 211 202 201 203 206 208 213 214 215 217 224 232 234 234 233 232 232 236 238 243 247 248 254 257 265 294 307 308
68 61 36 259 264 274 273 261 234 200 226 232 207 248 257 260 252 239 228 214 217 215 211 206 208 211 214 218 222 224 225 228 231 230 230 229 233 230 226 220 212 206 199 202 220 258 312 321 304
119 91 228 258 265 301 262 324 206 211 221 247 238 235 272 291 255 236 221 218 217 215 215 215 215 219 219 220 223 227 227 229 228 227 227 227 227 223 215 209 203 200 200 200 203 225 265 278 295
134 93 278 251 266 274 310 248 285 222 258 249 217 238 260 291 267 238 227 224 222 221 219 218 221 223 222 222 225 227 230 230 228 228 228 223 218 213 211 211 211 214 225 248 281 300 306 312 328
153 66 248 252 187 257 286 310 273 267 259 243 234 247 266 272 274 242 231 228 228 227 224 223 223 224 225 227 228 228 226 229 231 231 228 222 219 214 211 210 211 221 233 252 275 294 313 329 338
144 144 223 214 206 240 287 252 290 257 260 263 261 269 270 269 267 263 251 244 236 235 234 228 226 227 227 227 228 228 228 230 233 235 233 228 223 217 218 216 217 224 231 244 253 272 302 320 332
183 211 219 250 247 268 280 275 271 216 265 264 261 289 289 280 266 258 258 256 259 252 238 236 232 229 229 229 229 228 229 230 231 232 230 227 227 228 226 228 231 236 245 252 264 278 291 308 323
217 240 234 257 260 271 256 280 250 218 267 288 284 282 278 273 273 267 261 262 260 252 246 240 236 235 233 230 232 231 231 231 231 230 229 228 229 228 226 227 230 233 236 242 255 271 286 303 313
215 237 252 266 277 277 276 265 250 256 281 286 282 280 277 273 271 271 267 264 259 254 250 245 241 238 237 235 234 232 232 232 233 232 229 228 226 227 226 225 227 229 233 240 252 262 279 295 307
263 265 277 284 273 263 217 270 221 269 279 283 284 282 282 275 273 273 268 265 261 260 254 249 245 242 240 239 238 237 235 233 233 233 231 230 228 226 225 226 229 231 236 243 250 262 275 288 301
278 311 310 235 260 233 215 291 230 275 281 285 287 287 287 282 273 269 276 276 273 267 261 257 250 246 243 242 240 238 238 235 234 233 231 230 229 229 228 228 229 230 233 239 247 255 265 273 283
311 166 307 271 138 252 165 252 273 289 278 278 288 289 291 294 280 273 272 281 280 274 265 258 253 250 246 244 243 242 239 237 235 234 233 231 230 229 229 229 229 230 234 237 241 248 255 264 276
328 242 229 304 203 152 189 250 270 292 270 275 283 281 283 281 277 272 271 276 280 282 274 266 256 250 247 245 243 243 241 239 236 235 233 231 231 230 230 229 229 231 233 235 240 246 253 262 270
225 228 254 247 301 184 241 256 277 283 279 272 277 279 278 277 275 275 274 276 277 278 278 270 262 254 248 244 242 241 240 237 235 235 233 232 231 231 231 229 229 230 232 234 239 244 251 257 265
169 252 248 266 276 299 268 268 275 275 284 274 270 267 270 272 278 280 280 281 281 276 273 268 262 258 248 241 239 239 240 237 235 234 233 231 231 230 230 230 230 231 233 235 237 240 246 251 257
250 269 269 273 264 205 269 273 268 265 257 264 271 275 270 276 286 289 291 291 289 286 282 274 264 253 251 245 242 240 240 238 238 238 234 230 229 228 229 230 230 231 232 232 236 241 244 248 254
219 219 260 261 320 250 297 273 230 261 253 260 265 265 273 274 286 295 300 305 301 299 299 289 277 260 251 245 239 236 235 237 235 234 234 232 231 229 229 229 229 230 231 234 237 240 242 245 246
266 224 250 266 359 248 16 297 305 260 270 245 264 273 279 282 289 297 315 324 323 320 314 295 281 265 254 247 243 240 236 233 234 236 235 232 231 230 230 229 230 231 232 232 234 236 239 240 242
241 199 227 189 207 337 228 267 236 152 260 270 278 285 289 292 308 333 345 345 343 331 315 304 290 270 257 247 244 243 239 239 239 235 232 231 229 231 230 228 228 230 230 231 232 233 235 239 241
48 42 50 67 102 270 203 198 96 164 194 240 228 304 286 330 349 352 354 1 5 355 334 298 284 278 261 251 245 242 241 239 236 233 234 231 229 229 229 230 229 230 230 231 232 233 234 235 237
146 76 308 318 43 255 172 228 251 237 223 213 282 280 279 333 341 344 349 349 345 345 333 316 284 271 263 252 248 245 242 239 240 239 235 233 229 227 228 230 229 230 231 232 232 233 235 236 237
180 167 167 238 261 282 89 261 270 212 248 251 274 291 297 326 327 344 334 329 329 330 334 323 307 283 267 258 252 248 246 243 242 241 240 239 237 235 232 231 232 233 232 231 232 234 235 236 236
172 179 195 292 7 306 266 277 282 219 284 285 290 347 312 329 327 324 326 324 328 327 327 326 314 304 287 271 263 257 252 248 243 240 239 241 241 238 237 236 233 234 233 232 232 234 235 235 236
174 187 52 357 256 258 268 273 262 302 307 319 323 343 333 324 317 312 313 311 313 328 332 329 321 307 302 292 277 266 258 252 249 243 241 242 241 240 237 237 235 234 234 233 231 234 234 234 235
89 250 243 231 203 250 261 257 273 291 305 329 315 313 321 316 314 326 332 334 331 334 335 333 327 324 327 307 294 279 267 259 253 248 245 243 242 241 239 235 234 232 232 230 232 234 234 234 234
210 253 241 244 246 231 254 260 284 295 309 314 314 317 351 16 3 2 1 356 352 350 344 336 325 316 316 313 300 285 275 265 258 254 250 248 245 244 243 240 235 234 231 230 231 232 232 231 232